Malaga, Spain

7:24 AM CEST on August 27, 2016 (GMT +0200)
Malaga

Weather History for LEMG - December, 2012

Change the Weather History Date:

Monday, December 3, 2012

  Actual Average Record
Temperature  
Mean Temperature 50 °F -  
Max Temperature 63 °F 60 °F 69 °F (2005)
Min Temperature 37 °F 46 °F 37 °F (2012)
Degree Days  
Heating Degree Days 15    
Moisture  
Dew Point 34 °F    
Average Humidity 59    
Maximum Humidity 93    
Minimum Humidity 23    
Precipitation  
Precipitation 0.00 in 0.13 in - ()
Sea Level Pressure  
Sea Level Pressure 30.35 in    
Wind  
Wind Speed 9 mph ()    
Max Wind Speed 21 mph    
Max Gust Speed -    
Visibility 16.7 miles    
Events      
Averages and records for this station are not official NWS values.
T = Trace of Precipitation, MM = Missing Value Source: Averaged Metar Reports

Daily Weather History Graph

Daily Weather History Graph

Search for Another Location

Airport or City:

Trip Planner

Search our weather history database for the weather conditions in past years. The results will help you decide how hot, cold, wet, or windy it might be!

Date:

Astronomy

Dec. 03, 2012 Rise Set
Actual Time 8:13 AM CET 6:01 PM CET
Civil Twilight 7:45 AM CET 6:30 PM CET
Nautical Twilight 7:13 AM CET 7:02 PM CET
Astronomical Twilight 6:41 AM CET 7:33 PM CET
Moon 10:30 PM CET (12/3) 11:32 AM CET (12/3)
Length of Visible Light 10h 45m
Length of Day
9h 48m
Waning Gibbous, 80% of the Moon is Illuminated
Dec 3
Waning Gibbous
Dec 6
Last Quarter
Dec 13
New
Dec 20
First Quarter
Dec 28
Full

Hourly Weather History & Observations

Time (CET) Temp. Windchill Dew Point Humidity Pressure Visibility Wind Dir Wind Speed Gust Speed Precip Events Conditions
12:00 AM 41.0 °F 35.8 °F 35.6 °F 81% 30.33 in - NW 8.1 mph - N/A   Clear
1:00 AM 43 °F - 35 °F 65% 30.35 in 19 mi NW 8.1 mph - -  
1:00 AM 41.0 °F 35.8 °F 35.6 °F 81% 30.33 in - NW 8.1 mph - N/A   Clear
1:30 AM 39.2 °F 33.6 °F 35.6 °F 87% 30.33 in - NW 8.1 mph - N/A   Clear
2:00 AM 39.2 °F 33.0 °F 35.6 °F 87% 30.33 in - NW 9.2 mph - N/A   Clear
2:30 AM 39.2 °F 33.6 °F 35.6 °F 87% 30.33 in - NW 8.1 mph - N/A   Clear
3:00 AM 39.2 °F 33.6 °F 35.6 °F 87% 30.33 in - NW 8.1 mph - N/A   Clear
3:30 AM 37.4 °F 32.8 °F 35.6 °F 93% 30.33 in - NW 5.8 mph - N/A   Clear
4:00 AM 37.4 °F 32.1 °F 33.8 °F 87% 30.33 in - WNW 6.9 mph - N/A   Clear
4:30 AM 37.4 °F 32.1 °F 33.8 °F 87% 30.33 in - NW 6.9 mph - N/A   Clear
5:00 AM 37.4 °F 32.8 °F 33.8 °F 87% 30.33 in - NW 5.8 mph - N/A   Clear
5:30 AM 35.6 °F 30.7 °F 33.8 °F 93% 30.33 in - NW 5.8 mph - N/A   Clear
6:00 AM 35.6 °F 31.7 °F 33.8 °F 93% 30.33 in - NW 4.6 mph - N/A   Clear
6:30 AM 35.6 °F 31.7 °F 33.8 °F 93% 30.36 in - NW 4.6 mph - N/A   Clear
7:00 AM 42 °F - 31 °F 53% 30.37 in 19 mi NW 8.1 mph - -  
7:00 AM 37.4 °F 31.4 °F 33.8 °F 87% 30.36 in - NW 8.1 mph - N/A   Clear
7:30 AM 37.4 °F 30.8 °F 32.0 °F 81% 30.36 in - NW 9.2 mph - N/A   Clear
8:00 AM 39.2 °F 32.5 °F 33.8 °F 81% 30.36 in - NW 10.4 mph - N/A   Clear
8:30 AM 39.2 °F 32.5 °F 33.8 °F 81% 30.36 in - NW 10.4 mph - N/A   Clear
9:00 AM 39.2 °F 32.5 °F 33.8 °F 81% 30.39 in - NW 10.4 mph - N/A   Clear
9:30 AM 44.6 °F 39.2 °F 35.6 °F 71% 30.39 in - WNW 10.4 mph - N/A   Clear
10:00 AM 50.0 °F - 32.0 °F 50% 30.39 in - West 13.8 mph - N/A   Clear
10:30 AM 51.8 °F - 32.0 °F 47% 30.39 in - WNW 13.8 mph - N/A   Clear
11:00 AM 53.6 °F - 30.2 °F 41% 30.39 in - WNW 11.5 mph - N/A   Clear
11:30 AM 53.6 °F - 30.2 °F 41% 30.39 in - West 15.0 mph - N/A   Clear
12:00 PM 55.4 °F - 30.2 °F 38% 30.39 in - WNW 15.0 mph - N/A   Clear
12:30 PM 57.2 °F - 28.4 °F 33% 30.39 in - West 15.0 mph - N/A   Clear
1:00 PM 59 °F - 31 °F 23% 30.38 in 25 mi West 15.0 mph - -  
1:00 PM 57.2 °F - 30.2 °F 36% 30.36 in - West 15.0 mph - N/A   Clear
1:30 PM 59.0 °F - 30.2 °F 34% 30.36 in - West 15.0 mph - N/A   Clear
2:00 PM 59.0 °F - 32.0 °F 36% 30.36 in - West 13.8 mph - N/A   Clear
2:30 PM 60.8 °F - 30.2 °F 31% 30.33 in - West 12.7 mph - N/A   Clear
3:00 PM 60.8 °F - 30.2 °F 31% 30.33 in - West 12.7 mph - N/A   Clear
3:30 PM 60.8 °F - 32.0 °F 34% 30.33 in - West 12.7 mph - N/A   Clear
4:30 PM 60.8 °F - 33.8 °F 36% 30.33 in - WNW 8.1 mph - N/A   Clear
5:00 PM 59.0 °F - 35.6 °F 42% 30.33 in - West 8.1 mph - N/A   Clear
5:30 PM 57.2 °F - 35.6 °F 44% 30.33 in - West 8.1 mph - N/A   Clear
6:00 PM 57.2 °F - 33.8 °F 41% 30.33 in - West 11.5 mph - N/A   Clear
6:30 PM 55.4 °F - 35.6 °F 47% 30.36 in - West 12.7 mph - N/A   Clear
7:00 PM 56 °F - 38 °F 39% 30.36 in 12 mi West 13.8 mph - -   Clear
7:00 PM 55.4 °F - 35.6 °F 47% 30.36 in - West 13.8 mph - N/A   Clear
7:30 PM 53.6 °F - 35.6 °F 51% 30.36 in - West 13.8 mph - N/A   Clear
8:00 PM 55.4 °F - 35.6 °F 47% 30.36 in - West 13.8 mph - N/A   Clear
8:30 PM 53.6 °F - 35.6 °F 51% 30.36 in - WNW 15.0 mph - N/A   Clear
9:00 PM 53.6 °F - 35.6 °F 51% 30.36 in - West 13.8 mph - N/A   Clear
9:30 PM 53.6 °F - 33.8 °F 47% 30.36 in - WNW 17.3 mph - N/A   Clear
10:00 PM 53.6 °F - 33.8 °F 47% 30.36 in - West 18.4 mph - N/A   Clear
10:30 PM 53.6 °F - 33.8 °F 47% 30.36 in - West 17.3 mph - N/A   Clear
11:00 PM 53.6 °F - 33.8 °F 47% 30.36 in - WNW 18.4 mph - N/A   Clear
11:30 PM 53.6 °F - 33.8 °F 47% 30.36 in - WNW 20.7 mph - N/A   Clear